Hourly Weather Lugi

Today, 16 June, Wednesday

Time Temperature Precipitation Wind Pressure Humidity
00:00 +10°C° 0 mm 2 mps 759 mmHg 81%
01:00 +9°C° 0 mm 2 mps 759 mmHg 84%
02:00 +9°C° 0 mm 2 mps 759 mmHg 85%
03:00 +9°C° 0 mm 2 mps 759 mmHg 86%
04:00 +9°C° 0 mm 2 mps 759 mmHg 87%
05:00 +12°C° 0 mm 2 mps 759 mmHg 78%
06:00 +14°C° 0 mm 2 mps 759 mmHg 70%
07:00 +16°C° 0 mm 2 mps 759 mmHg 62%
08:00 +18°C° 0 mm 2 mps 759 mmHg 55%
09:00 +19°C° 0 mm 2 mps 759 mmHg 48%
10:00 +22°C° 0 mm 1 mps 759 mmHg 42%
11:00 +24°C° 0 mm 1 mps 759 mmHg 39%
12:00 +25°C° 0 mm 1 mps 758 mmHg 36%
13:00 +26°C° 0 mm 1 mps 758 mmHg 33%
14:00 +26°C° 0 mm 2 mps 758 mmHg 33%
15:00 +26°C° 0 mm 2 mps 757 mmHg 34%
16:00 +27°C° 0 mm 2 mps 757 mmHg 34%
17:00 +25°C° 0 mm 2 mps 757 mmHg 42%
18:00 +24°C° 0 mm 2 mps 757 mmHg 50%
19:00 +22°C° 0 mm 3 mps 757 mmHg 58%
20:00 +20°C° 0 mm 3 mps 757 mmHg 65%
21:00 +19°C° 0 mm 3 mps 757 mmHg 71%
22:00 +17°C° 0 mm 3 mps 758 mmHg 77%
23:00 +16°C° 0 mm 3 mps 758 mmHg 81%

Tomorrow, 17 June, Thursday

Time Temperature Precipitation Wind Pressure Humidity
00:00 +16°C° 0 mm 3 mps 758 mmHg 84%
01:00 +16°C° 0 mm 3 mps 758 mmHg 87%
02:00 +14°C° 0 mm 3 mps 758 mmHg 88%
03:00 +14°C° 0 mm 3 mps 758 mmHg 89%
04:00 +14°C° 0 mm 3 mps 757 mmHg 91%
05:00 +17°C° 0 mm 3 mps 758 mmHg 84%
06:00 +19°C° 0 mm 3 mps 758 mmHg 78%
07:00 +21°C° 0 mm 4 mps 758 mmHg 72%
08:00 +23°C° 0 mm 4 mps 758 mmHg 65%
09:00 +26°C° 0 mm 4 mps 758 mmHg 58%
10:00 +28°C° 0 mm 5 mps 758 mmHg 52%
11:00 +29°C° 0 mm 5 mps 757 mmHg 49%
12:00 +30°C° 0 mm 5 mps 757 mmHg 46%
13:00 +32°C° 0 mm 5 mps 757 mmHg 43%
14:00 +32°C° 0 mm 5 mps 757 mmHg 43%
15:00 +32°C° 0 mm 4 mps 757 mmHg 43%
16:00 +32°C° 0 mm 4 mps 757 mmHg 43%
17:00 +30°C° 0 mm 4 mps 757 mmHg 49%
18:00 +29°C° 0 mm 4 mps 757 mmHg 55%
19:00 +27°C° 0 mm 3 mps 757 mmHg 61%
20:00 +26°C° 0 mm 4 mps 757 mmHg 65%
21:00 +25°C° 0 mm 4 mps 757 mmHg 69%
22:00 +22°C° 0 mm 4 mps 757 mmHg 72%
23:00 +21°C° 0 mm 4 mps 757 mmHg 75%

Day after tomorrow, 18 June, Friday

Time Temperature Precipitation Wind Pressure Humidity
00:00 +20°C° 0 mm 3 mps 757 mmHg 78%
01:00 +19°C° 0 mm 3 mps 757 mmHg 81%
02:00 +19°C° 0 mm 3 mps 757 mmHg 82%
03:00 +18°C° 0 mm 3 mps 757 mmHg 82%
04:00 +18°C° 0 mm 3 mps 757 mmHg 83%
05:00 +20°C° 0 mm 3 mps 757 mmHg 76%
06:00 +21°C° 0 mm 4 mps 757 mmHg 69%
07:00 +23°C° 0 mm 4 mps 757 mmHg 61%
08:00 +26°C° 0 mm 4 mps 757 mmHg 56%
09:00 +28°C° 0 mm 4 mps 757 mmHg 51%
10:00 +30°C° 0 mm 4 mps 756 mmHg 46%
11:00 +32°C° 0 mm 4 mps 756 mmHg 43%
12:00 +33°C° 0 mm 4 mps 756 mmHg 40%
13:00 +34°C° 0 mm 4 mps 756 mmHg 37%
14:00 +34°C° 0 mm 4 mps 756 mmHg 38%
15:00 +34°C° 0 mm 4 mps 755 mmHg 38%
16:00 +34°C° 0 mm 4 mps 755 mmHg 38%
17:00 +32°C° 0 mm 4 mps 755 mmHg 44%
18:00 +30°C° 0 mm 4 mps 755 mmHg 49%
19:00 +29°C° 0 mm 4 mps 755 mmHg 55%
20:00 +27°C° 0 mm 4 mps 755 mmHg 59%
21:00 +26°C° 0 mm 4 mps 755 mmHg 64%
22:00 +25°C° 0 mm 4 mps 756 mmHg 68%
23:00 +24°C° 0 mm 3 mps 755 mmHg 72%

19 June, Saturday

Time Temperature Precipitation Wind Pressure Humidity
00:00 +22°C° 0 mm 3 mps 755 mmHg 75%
01:00 +21°C° 0 mm 3 mps 755 mmHg 79%
02:00 +21°C° 0 mm 3 mps 755 mmHg 82%
03:00 +20°C° 0 mm 2 mps 755 mmHg 85%
04:00 +19°C° 0 mm 2 mps 755 mmHg 88%
05:00 +21°C° 0 mm 3 mps 755 mmHg 81%
06:00 +24°C° 0 mm 3 mps 755 mmHg 73%
07:00 +26°C° 0 mm 3 mps 755 mmHg 66%
08:00 +28°C° 0 mm 3 mps 755 mmHg 58%
09:00 +30°C° 0 mm 4 mps 755 mmHg 51%
10:00 +33°C° 0 mm 4 mps 755 mmHg 43%
11:00 +34°C° 0 mm 4 mps 755 mmHg 40%
12:00 +35°C° 0 mm 3 mps 754 mmHg 37%
13:00 +36°C° 0 mm 3 mps 754 mmHg 34%
14:00 +36°C° 0 mm 3 mps 754 mmHg 34%
15:00 +36°C° 0 mm 3 mps 754 mmHg 35%
16:00 +36°C° 0 mm 3 mps 754 mmHg 35%
17:00 +34°C° 0 mm 2 mps 754 mmHg 43%
18:00 +31°C° 0 mm 2 mps 754 mmHg 51%
19:00 +29°C° 0 mm 2 mps 754 mmHg 59%
20:00 +27°C° 2.5 mm 2 mps 754 mmHg 69%
21:00 +25°C° 2.5 mm 2 mps 755 mmHg 79%
22:00 +22°C° 2.5 mm 3 mps 755 mmHg 89%
23:00 +23°C° 0.9 mm 2 mps 755 mmHg 90%

20 June, Sunday

Time Temperature Precipitation Wind Pressure Humidity
00:00 +22°C° 0.9 mm 1 mps 755 mmHg 90%
01:00 +22°C° 0.9 mm 1 mps 754 mmHg 91%
02:00 +22°C° 0.1 mm 1 mps 755 mmHg 92%
03:00 +20°C° 0.1 mm 2 mps 755 mmHg 93%
04:00 +20°C° 0.1 mm 2 mps 755 mmHg 94%
05:00 +21°C° 0 mm 2 mps 755 mmHg 89%
06:00 +23°C° 0 mm 2 mps 755 mmHg 85%
07:00 +24°C° 0 mm 2 mps 754 mmHg 81%
08:00 +26°C° 0 mm 1 mps 754 mmHg 74%
09:00 +28°C° 0 mm 1 mps 754 mmHg 66%
10:00 +30°C° 0 mm 1 mps 754 mmHg 58%
11:00 +31°C° 0 mm 1 mps 754 mmHg 53%
12:00 +32°C° 0 mm 1 mps 754 mmHg 49%
13:00 +34°C° 0 mm 1 mps 753 mmHg 45%
14:00 +34°C° 0 mm 2 mps 753 mmHg 46%
15:00 +34°C° 0 mm 2 mps 752 mmHg 47%
16:00 +33°C° 0 mm 3 mps 752 mmHg 49%
17:00 +31°C° 0 mm 3 mps 752 mmHg 52%
18:00 +30°C° 0 mm 4 mps 752 mmHg 56%
19:00 +29°C° 0 mm 4 mps 752 mmHg 60%
20:00 +28°C° 0 mm 4 mps 752 mmHg 63%
21:00 +27°C° 0 mm 4 mps 752 mmHg 65%
22:00 +26°C° 0 mm 4 mps 752 mmHg 68%
23:00 +25°C° 0 mm 3 mps 752 mmHg 71%

21 June, Monday

Time Temperature Precipitation Wind Pressure Humidity
00:00 +24°C° 0 mm 3 mps 752 mmHg 73%
01:00 +22°C° 0 mm 3 mps 752 mmHg 76%
02:00 +22°C° 0 mm 3 mps 752 mmHg 77%
03:00 +21°C° 0 mm 3 mps 751 mmHg 78%
04:00 +21°C° 0 mm 3 mps 751 mmHg 79%
05:00 +23°C° 0 mm 4 mps 751 mmHg 74%
06:00 +25°C° 0 mm 4 mps 751 mmHg 69%
07:00 +26°C° 0 mm 4 mps 751 mmHg 64%
08:00 +28°C° 0 mm 4 mps 751 mmHg 60%
09:00 +30°C° 0 mm 4 mps 751 mmHg 56%
10:00 +32°C° 0 mm 4 mps 751 mmHg 52%
11:00 +32°C° 0.2 mm 4 mps 751 mmHg 52%
12:00 +33°C° 0.2 mm 4 mps 751 mmHg 53%
13:00 +33°C° 0.2 mm 4 mps 750 mmHg 53%
14:00 +31°C° 1.1 mm 3 mps 750 mmHg 59%
15:00 +30°C° 1.1 mm 3 mps 750 mmHg 64%
16:00 +29°C° 1.1 mm 2 mps 751 mmHg 69%
17:00 +27°C° 2 mm 2 mps 751 mmHg 75%
18:00 +26°C° 2 mm 2 mps 751 mmHg 80%
19:00 +24°C° 2 mm 2 mps 751 mmHg 85%
20:00 +24°C° 0.4 mm 2 mps 751 mmHg 87%
21:00 +23°C° 0.4 mm 2 mps 751 mmHg 89%
22:00 +21°C° 0.4 mm 2 mps 751 mmHg 91%
23:00 +21°C° 0.1 mm 2 mps 751 mmHg 92%
Show more

We Need Your Consent

Meteoprog and our Service Providers may store and access personal data such as cookies, device identifiers or other similar technologies on your device and process such data to personalise content and ads, as well as provide social media features and to analyse the traffic.

  • Store and/or access information on your device

    Cookies, device identifiers or other information can be stored or accessed on your device for the purposes indicated above.

  • Personalised ads and content, ad and content measurement, audience insights, and products development

    Ads and content can be personalised based on a profile. More data can be added to better personalise ads and content. Ad and content performance can be measured. Insights about the audience who saw the ads and content can be derived. Such data can be used to develop or improve user’s experience, systems and software.

By clicking ‘I Agree’ you will allow the use of indicated cookies, device identifiers, web beacons or other similar technologies. Your settings can be changed in the browser on your device.

For certain purposes, legitimate interests may be relied on, rather than consent. You can read more about this in our Privacy and Cookie Policy.